Location: ????????
(60.4333°N, 46.4710°E)
Time: 04:35:04
(UTC+00:00)

H-2A R/B - Pass Details

Date: 25 November 2020
Orbit: 499 x 540 km, 97.3° (Epoch: 14 January)

Event Time Altitude Azimuth Distance (km) Brightness Sun altitude
Rises 13:05:29 0° 157° (SSE) 2,661 6.4 -7.1°
Reaches altitude 10° 13:07:34 10° 156° (SSE) 1,782 5.5 -7.3°
Maximum altitude 13:11:25 75° 71° (ENE) 563 2.7 -7.7°
Drops below altitude 10° 13:15:20 10° 347° (NNW) 1,815 5.3 -8.1°
Sets 13:17:29 0° 345° (NNW) 2,715 6.2 -8.4°
